Regional Weather Roundup
Issued by NWS

Home | Current Version | Previous Version | Graphics & Text | Print | Product List | Glossary Off
Versions: 1 2 3 4 5 6 7 8 9 10 11 12 13 14 15 16 17 18 19 20 21 22 23 24 25 26 27 28 29 30 31 32 33 34 35 36 37 38 39 40 41 42 43 44 45 46 47 48 49 50

000
ASUS43 KLSX 251157
RWRMO

WEATHER SUMMARY FOR MISSOURI
NATIONAL WEATHER SERVICE SPRINGFIELD MO
600 AM CST SAT NOV 25 2017

NOTE: "FAIR" INDICATES FEW OR NO CLOUDS BELOW 12,000 FEET WITH NO
       SIGNIFICANT WEATHER AND/OR OBSTRUCTIONS TO VISIBILITY.
       CURRENT SKY AND/OR WEATHER CONDITIONS ARE NOT AVAILABLE FOR
       CHILLICOTHE AND FARMINGTON.

MOZ001>031-035>038-043-044-053-054-251300-
...NORTHERN AND WESTERN MISSOURI...

CITY           SKY/WX    TMP DP  RH WIND       PRES   REMARKS
KANSAS CTY INT CLEAR     41  35  79 NW6       30.07R
6HR MIN TEMP:  41; 6HR MAX TEMP:  50;

LEE`S SUMMIT   CLEAR     43  36  76 NW8       30.06R
6HR MIN TEMP:  41; 6HR MAX TEMP:  55;

ST JOSEPH      CLEAR     31  28  89 N6        30.08R WCI  25
6HR MIN TEMP:  31; 6HR MAX TEMP:  49;

CHILLICOTHE      N/A     39  34  82 NW3       30.06R
6HR MIN TEMP:  37; 6HR MAX TEMP:  52;


$$
MOZ066>068-077>081-088>096-101>105-251300-
...SOUTHWEST MISSOURI...

CITY           SKY/WX    TMP DP  RH WIND       PRES   REMARKS
SPRINGFIELD    CLOUDY    49  39  68 N8        30.01R
6HR MIN TEMP:  49; 6HR MAX TEMP:  61;

JOPLIN         PTCLDY    48  39  71 N6        30.05R
6HR MIN TEMP:  48; 6HR MAX TEMP:  59;


$$
MOZ032>034-039>042-045>050-055>058-069>072-251300-
...CENTRAL MISSOURI...

CITY           SKY/WX    TMP DP  RH WIND       PRES   REMARKS
COLUMBIA       NOT AVBL
JEFFERSON CITY CLEAR     43  35  73 NW3       30.03R
6HR MIN TEMP:  42; 6HR MAX TEMP:  59;

ROLLA          CLOUDY    43  35  73 NW5       30.01R
6HR MIN TEMP:  42; 6HR MAX TEMP:  60;

SEDALIA        CLEAR     43  38  82 NW3       30.05R
6HR MIN TEMP:  42; 6HR MAX TEMP:  56;

WARRENSBURG    CLEAR     41  34  75 W3        30.05R

$$
MOZ051-052-059>065-251300-
...EAST CENTRAL MISSOURI...

CITY           SKY/WX    TMP DP  RH WIND       PRES   REMARKS
ST LOUIS INTL  PTCLDY    44  36  73 NW9       29.97R
6HR MIN TEMP:  43; 6HR MAX TEMP:  60;


$$
MOZ072>076-082>087-097>100-106>115-251300-
...SOUTH CENTRAL AND SOUTHEAST MISSOURI...

CITY           SKY/WX    TMP DP  RH WIND       PRES   REMARKS
CAPE GIRARDEAU PTCLDY    39  35  86 W3        29.94R
6HR MIN TEMP:  37; 6HR MAX TEMP:  52; 6HR PCP: TRACE;

POPLAR BLUFF   MOCLDY    49  39  68 N8        29.94R
6HR MIN TEMP:  48; 6HR MAX TEMP:  54; 6HR PCP: TRACE;

WEST PLAINS    MOCLDY    53  40  61 N10       29.97R
6HR MIN TEMP:  53; 6HR MAX TEMP:  59;


$$



USA.gov is the U.S. government's official web portal to all federal, state and local government web resources and services.